[[{"header":{"parameterUnit":"m.s-1","parameterCategory":1,"la1":30.2991,"la2":30.254,"lo1":-89.0895,"lo2":-89.0444,"dy":0.0017,"dx":0.0017,"nx":28,"ny":28,"refTime":"2026-02-15T09:00:00:Z","depth":0,"parameterNumber":2,"parameterNumberName":"U-component_of_WINDS"},"data":[0,0,0,0,0,0,0,0,0,0,0,0,0,0,0,0,0,0,0,0,0,0,0,0,0,0,0,0,0,0,0,0,0,0,0,0,0,0,0,0,0,0,0,0,0,0,0,0,0,0,0,0,0,0,0,0,0,0,2.8175,2.8175,0,2.8175,2.8175,2.8175,2.8119,2.8117,2.8116,2.8114,2.8119,2.812,2.8122,0,0,0,0,0,0,0,0,0,0,0,0,0,2.813,2.8132,2.8175,2.8175,2.8175,2.8175,2.8175,2.8175,2.8119,2.8117,2.8115,2.8113,2.8118,2.812,2.8122,0,0,0,0,0,0,0,0,0,0,0,0,0,2.8142,2.8132,2.8175,2.8147,2.8144,2.8175,2.8175,2.8175,2.8119,2.8117,2.8115,2.8113,2.8118,2.812,2.8122,2.8181,0,0,2.8129,2.813,0,0,0,0,0,0,0,0,2.8142,2.8144,2.8151,2.8149,2.8146,2.8144,2.8161,2.8177,2.812,2.8129,2.8114,2.8111,2.8129,2.8131,2.8136,2.8182,2.8182,2.8129,2.8131,2.8132,2.8132,0,0,0,0,0,0,0,2.8141,2.8144,2.8175,2.8151,2.8148,2.8136,2.8135,2.8164,2.8142,2.8128,2.8124,2.8124,2.8128,2.8134,2.8135,2.8182,2.8129,2.8131,2.8133,2.8134,2.8277,2.828,0,0,0,0,0,0,2.8143,2.8143,2.8175,2.8175,2.8138,2.8138,2.8137,2.8147,2.8141,2.8138,2.8126,2.8122,2.8131,2.8133,2.8135,2.8205,2.8132,2.8134,2.8135,2.8275,2.8278,2.828,0,0,0,0,0,0,2.8143,2.8147,2.8175,2.8158,2.8161,2.8141,2.8153,2.8148,2.8154,2.814,2.8136,2.8136,2.8129,2.8132,2.817,2.8204,2.8135,2.8137,2.8272,2.8276,2.8279,2.8343,0,0,0,0,0,0,2.8142,2.8147,2.8168,2.8159,2.8162,2.8209,2.8155,2.815,2.8158,2.8152,2.8148,2.8146,2.8128,2.8167,2.8172,2.8206,2.8139,2.8269,2.8274,2.8278,2.8338,2.8349,2.8358,0,0,0,0,0,2.814,2.8187,2.8169,2.8173,2.8188,2.8211,2.8212,2.8189,2.8161,2.8183,2.8174,2.8146,2.8199,2.8171,2.8177,2.8212,2.8267,2.8272,2.8278,2.8334,2.8347,2.8358,0,0,0,0,0,0,2.8202,2.8185,2.8165,2.821,2.8212,2.8201,2.8228,2.8204,2.8215,2.8209,2.8182,2.8181,2.8224,2.8222,2.8191,2.8269,2.8228,2.8235,2.8269,2.8281,2.8291,2.8291,2.8141,0,0,0,0,0,2.822,2.8239,2.8224,2.8265,2.8267,2.8247,2.8257,2.8239,2.824,2.8241,2.8235,2.8239,2.8256,2.8269,2.8284,2.8338,2.8337,2.8364,2.8374,2.8382,2.8389,2.8418,2.843,2.8298,2.8298,2.8298,0,0,2.8259,2.8252,2.8266,2.8277,2.8276,2.8298,2.8248,2.8273,2.8289,2.8245,2.828,2.8276,2.8279,2.8325,2.8345,2.8324,2.8425,2.8389,2.8396,2.8398,2.8425,2.8437,2.8448,2.8302,2.8302,2.8301,0,0,2.8341,2.8337,2.8371,2.8371,2.837,2.8357,2.8366,2.8358,2.8353,2.8388,2.8356,2.8375,2.8406,2.8409,2.8415,2.8499,2.8474,2.8505,2.8557,2.8585,2.8596,2.8605,2.8635,2.8647,2.8512,2.8512,2.8512,0,2.8389,2.8419,2.8392,2.8419,2.8425,2.8385,2.842,2.8422,2.8428,2.8434,2.841,2.8448,2.8447,2.8494,2.8514,2.852,2.853,2.8505,2.8596,2.8605,2.8613,2.8642,2.8654,2.8515,2.8515,2.8515,2.8514,0,2.8479,2.85,2.8528,2.8532,2.8542,2.8573,2.8553,2.8566,2.8548,2.8537,2.8574,2.8571,2.8586,2.8596,2.8578,2.8641,2.8628,2.8601,2.8559,2.863,2.8657,2.8667,2.8521,2.852,2.8518,2.8517,0,0,2.8599,2.8588,2.8599,2.8601,2.8598,2.8614,2.8644,2.8657,2.8669,2.8675,2.87,2.8727,2.8702,2.8709,2.8692,2.8717,2.8784,2.8687,2.8686,2.8705,2.8853,2.8874,2.8887,2.8768,2.877,2.8771,2.8853,0,2.8678,2.8727,2.8704,2.8756,2.8776,2.8739,2.8765,2.8767,2.8758,2.8775,2.8767,2.8787,2.8752,2.8756,2.8779,2.8771,2.8814,2.8765,2.8792,2.8793,2.8793,2.8901,2.8922,2.9,2.8864,2.8865,2.8867,0,2.8777,2.8785,2.8839,2.8832,2.884,2.8863,2.8874,2.889,2.8892,2.8884,2.8892,2.8869,2.89,2.8858,2.8901,2.8868,2.8878,2.8876,2.8879,2.888,2.8834,2.8906,2.9024,2.9036,2.8883,2.8881,2.888,0,2.8859,2.8884,2.8919,2.8922,2.8915,2.8933,2.8931,2.8931,2.894,2.895,2.8956,2.897,2.8978,2.899,2.8972,2.8943,2.9018,2.8974,2.9013,2.9014,2.903,2.903,2.9152,2.9037,2.9037,2.9036,2.9036,0,2.895,2.8985,2.8956,2.8978,2.9016,2.899,2.9029,2.9024,2.9024,2.9045,2.9015,2.9035,2.9011,2.903,2.9017,2.9054,2.9058,2.9054,2.905,2.9056,2.9057,2.9063,2.9057,2.9039,2.9039,2.9038,2.9038,0,2.9049,2.9031,2.9067,2.9058,2.9056,2.9085,2.9077,2.9098,2.9088,2.9115,2.912,2.9105,2.9126,2.9109,2.913,2.9121,2.9171,2.9159,2.917,2.9167,2.9207,2.9203,2.9337,2.9353,2.9228,2.9229,2.923,0,2.9108,2.9133,2.9127,2.9138,2.9138,2.9157,2.9166,2.9142,2.9154,2.9158,2.9179,2.9197,2.921,2.9245,2.9237,2.9253,2.9242,2.9288,2.9244,2.925,2.9243,2.9242,2.9245,2.9297,2.9298,2.9299,2.93,0,2.9215,2.9205,2.9218,2.923,2.9241,2.9249,2.9255,2.9267,2.9243,2.9257,2.9278,2.9288,2.9309,2.9328,2.9341,2.9341,2.9318,2.9314,2.9324,2.9331,2.9336,2.9334,2.9194,2.9311,2.931,2.9309,2.9309,2.9308,2.9295,2.9317,2.9315,2.9332,2.9334,2.934,2.9359,2.9351,2.9367,2.9381,2.9367,2.9392,2.9394,2.9409,2.9412,2.9433,2.9414,2.9428,2.9432,2.9436,2.9441,2.9333,2.9435,2.9435,2.9434,2.9434,2.9434,0,2.9401,2.9398,2.9414,2.9422,2.9436,2.9411,2.9417,2.943,2.9452,2.9456,2.9469,2.9493,2.9512,2.9505,2.9521,2.9539,2.9529,2.9544,2.9543,2.9543,2.9457,2.9447,2.9552,2.9552,2.9552,2.9552,2.9552,2.9552,2.9458,2.9492,2.9482,2.9518,2.9515,2.9538,2.9544,2.955,2.9553,2.9581,2.9595,2.959,2.959,2.9606,2.9623,2.962,2.9628,2.9648,2.9642,2.9561,2.9549,2.9538,2.9528,2.9649,2.965,2.9726,2.9727,2.9727]},{"header":{"parameterUnit":"m.s-1","parameterCategory":1,"la1":30.2991,"la2":30.254,"lo1":-89.0895,"lo2":-89.0444,"dy":0.0017,"dx":0.0017,"nx":28,"ny":28,"refTime":"2026-02-15T09:00:00:Z","depth":0,"parameterNumber":3,"parameterNumberName":"V-component_of_WINDS"},"data":[0,0,0,0,0,0,0,0,0,0,0,0,0,0,0,0,0,0,0,0,0,0,0,0,0,0,0,0,0,0,0,0,0,0,0,0,0,0,0,0,0,0,0,0,0,0,0,0,0,0,0,0,0,0,0,0,0,0,7.5699,7.57,0,7.5825,7.5827,7.5828,7.5792,7.5789,7.5787,7.5784,7.5915,7.5921,7.5926,0,0,0,0,0,0,0,0,0,0,0,0,0,7.5429,7.5434,7.5699,7.5701,7.5702,7.5825,7.5827,7.5828,7.5793,7.5789,7.5786,7.5783,7.5913,7.592,7.5927,0,0,0,0,0,0,0,0,0,0,0,0,0,7.555,7.5436,7.5699,7.5699,7.57,7.5825,7.5827,7.5829,7.5793,7.5789,7.5785,7.5782,7.5911,7.5919,7.5928,7.606,0,0,7.5955,7.5959,0,0,0,0,0,0,0,0,7.5543,7.556,7.5697,7.5699,7.5701,7.5789,7.5779,7.5906,7.5794,7.5758,7.5784,7.578,7.5876,7.5888,7.592,7.6066,7.6072,7.5956,7.5961,7.5965,7.5967,0,0,0,0,0,0,0,7.5535,7.5554,7.5749,7.5699,7.5702,7.5694,7.5706,7.5803,7.5837,7.5761,7.5759,7.5774,7.5876,7.5911,7.5923,7.6074,7.5955,7.5963,7.5969,7.5972,7.6337,7.6342,0,0,0,0,0,0,7.5525,7.5548,7.5745,7.5753,7.5611,7.5702,7.5716,7.5765,7.5836,7.5843,7.5777,7.5772,7.5898,7.5912,7.5927,7.6089,7.5965,7.5973,7.5978,7.6333,7.6338,7.6343,0,0,0,0,0,0,7.5519,7.5543,7.574,7.565,7.5674,7.571,7.5765,7.5769,7.5804,7.5848,7.5854,7.5807,7.5896,7.5915,7.6028,7.6093,7.5977,7.5985,7.6328,7.6335,7.6341,7.6411,0,0,0,0,0,0,7.5512,7.5541,7.5591,7.5651,7.5679,7.5838,7.5769,7.5774,7.5819,7.5813,7.5878,7.5885,7.5894,7.6015,7.6037,7.6103,7.5992,7.6322,7.6331,7.6339,7.6404,7.642,7.6433,0,0,0,0,0,7.5502,7.5606,7.5594,7.5618,7.5742,7.5842,7.5858,7.5866,7.5824,7.5876,7.5905,7.5883,7.6081,7.6027,7.6051,7.6121,7.6318,7.6328,7.6338,7.6397,7.6416,7.6433,0,0,0,0,0,0,7.5552,7.5613,7.5601,7.5727,7.5779,7.5835,7.59,7.5887,7.5952,7.5944,7.5952,7.5967,7.6084,7.6113,7.6051,7.6253,7.6194,7.6209,7.623,7.6249,7.6264,7.6255,7.5999,0,0,0,0,0,7.5578,7.5653,7.5702,7.5809,7.5836,7.5864,7.5907,7.5909,7.5964,7.5987,7.6023,7.6078,7.6153,7.6203,7.6274,7.6407,7.6422,7.6467,7.6482,7.6494,7.6508,7.6583,7.6604,7.6376,7.6376,7.6375,0,0,7.5632,7.5674,7.5721,7.582,7.5861,7.594,7.5883,7.5968,7.6027,7.6,7.6109,7.6138,7.62,7.6325,7.6381,7.6353,7.6574,7.6507,7.6516,7.6523,7.6595,7.6617,7.6636,7.6382,7.6381,7.638,0,0,7.5771,7.5809,7.5903,7.5946,7.6009,7.6027,7.605,7.6108,7.6127,7.6237,7.6219,7.6289,7.6418,7.6463,7.6503,7.6661,7.6644,7.6684,7.6763,7.6836,7.6854,7.687,7.6929,7.695,7.6697,7.6697,7.6697,0,7.583,7.5947,7.5953,7.6041,7.6086,7.6065,7.6161,7.6202,7.6286,7.6318,7.6284,7.6446,7.6486,7.6622,7.6661,7.6693,7.6721,7.6678,7.6851,7.6867,7.6882,7.6939,7.696,7.6702,7.6701,7.6701,7.67,0,7.6018,7.61,7.6168,7.625,7.6302,7.6394,7.6415,7.6467,7.6465,7.6487,7.6601,7.6648,7.673,7.6762,7.676,7.6899,7.6879,7.6848,7.6789,7.6909,7.6962,7.6983,7.6709,7.6707,7.6705,7.6704,0,0,7.6192,7.6277,7.6302,7.634,7.6409,7.6473,7.6564,7.6644,7.669,7.6748,7.6826,7.6936,7.6908,7.6954,7.6957,7.7021,7.7147,7.6983,7.6985,7.7014,7.7305,7.7329,7.7354,7.7135,7.7139,7.7142,7.7301,0,7.6339,7.6499,7.6508,7.6654,7.6732,7.6713,7.6793,7.6844,7.6868,7.6937,7.6962,7.7041,7.6998,7.7026,7.7088,7.7118,7.7206,7.7106,7.721,7.7213,7.7197,7.7381,7.7407,7.7554,7.7321,7.7325,7.7327,0,7.6531,7.6597,7.6751,7.681,7.6843,7.6914,7.699,7.7056,7.7114,7.7127,7.7178,7.7173,7.7268,7.7204,7.7337,7.7269,7.7312,7.7333,7.7339,7.7351,7.7279,7.74,7.7601,7.7624,7.7359,7.7357,7.7355,0,7.6646,7.6772,7.6881,7.6914,7.6985,7.7037,7.7069,7.7123,7.7172,7.7237,7.7269,7.7345,7.7387,7.7446,7.7463,7.7414,7.7596,7.7532,7.761,7.761,7.7651,7.7649,7.7864,7.7675,7.7674,7.7674,7.7673,0,7.681,7.6906,7.6934,7.7002,7.7109,7.7118,7.7224,7.7253,7.7302,7.7376,7.7364,7.7434,7.7449,7.7523,7.7535,7.7645,7.7663,7.7677,7.768,7.768,7.7678,7.7709,7.77,7.768,7.7678,7.7677,7.7676,0,7.6957,7.698,7.7098,7.7156,7.7173,7.725,7.7301,7.7366,7.7388,7.7481,7.7504,7.7539,7.7624,7.7646,7.7747,7.7756,7.7886,7.7878,7.7867,7.7867,7.7945,7.7938,7.8189,7.8224,7.801,7.8012,7.8013,0,7.7062,7.7135,7.7202,7.725,7.7285,7.7363,7.7413,7.7425,7.7477,7.7551,7.7608,7.7692,7.776,7.7898,7.7933,7.8011,7.8006,7.8089,7.8018,7.8016,7.8011,7.8007,7.8016,7.8103,7.8105,7.8107,7.8109,0,7.7245,7.7253,7.7325,7.7401,7.7461,7.7521,7.7579,7.762,7.7641,7.77,7.7788,7.7841,7.7945,7.803,7.8109,7.8143,7.8131,7.813,7.8153,7.8155,7.8147,7.8155,7.7906,7.8125,7.8123,7.8122,7.8121,7.8121,7.7376,7.7441,7.7499,7.758,7.7625,7.768,7.7745,7.7776,7.7849,7.7935,7.7938,7.8034,7.8092,7.8198,7.8236,7.8312,7.8288,7.832,7.8328,7.8337,7.8345,7.8133,7.8327,7.8326,7.8326,7.8325,7.8325,0,7.7561,7.7598,7.7672,7.7754,7.7818,7.78,7.7864,7.7919,7.8003,7.8059,7.8126,7.8228,7.8311,7.8352,7.8434,7.8487,7.8484,7.8509,7.8506,7.8515,7.8361,7.8335,7.851,7.851,7.851,7.851,7.851,7.851,7.7665,7.7776,7.7791,7.7924,7.796,7.8054,7.8093,7.8144,7.8188,7.8303,7.8371,7.8397,7.8448,7.8534,7.8609,7.862,7.8652,7.868,7.8688,7.8544,7.8525,7.8507,7.8482,7.8686,7.8687,7.8835,7.8837,7.8838]}]]